Date String (YYYY-MM-DD hh:mm:ss) UTC,Instrument flags,Ambient pressure (hPa),Sample flow (lpm),Bypass flow (lpm),Sample temperature (°C),Ambient temperature (°C),ASC tube jacket temperature (°C),LED temperature (°C),Box temperature (°C),Sample RH (%),Span deviation,Mass concentration (μg/m³),Mass concentration (μg/m³),Mass concentration (μg/m³)
DateTimeUTC,F1_M11,P_M11,Q1_M11,Q2_M11,T1_M11,T2_M11,T3_M11,T4_M11,T5_M11,U1_M11,ZSPAN_M11,X0_M11,X2_M11,X1_M11
2021-12-03 15:00:00,,0831.4,5.00,0.00,27.1,26.2,00.0,36.1,28.8,13.5,0000.0,0009.05,0003.38,0002.05
2021-12-03 15:01:00,,0831.4,5.00,0.00,27.0,26.1,00.0,36.1,28.8,13.5,0000.0,0009.42,0003.44,0002.06
2021-12-03 15:02:00,,0831.3,5.00,0.00,27.0,26.1,00.0,36.1,28.7,13.5,0000.0,0009.94,0003.44,0002.07
2021-12-03 15:03:00,,0831.3,5.00,0.00,27.0,26.1,00.0,36.1,28.7,13.5,0000.0,0010.02,0003.46,0002.08
2021-12-03 15:04:00,,0831.3,5.00,0.00,27.0,26.0,00.0,36.1,28.7,13.6,0000.0,0009.90,0003.44,0002.08
2021-12-03 15:05:00,,0831.3,4.99,0.00,26.9,26.0,00.0,36.0,28.7,13.6,0000.0,0009.77,0003.43,0002.06
2021-12-03 15:06:00,,0831.3,5.00,0.00,26.9,26.0,00.0,36.0,28.6,13.6,0000.0,0009.62,0003.39,0002.04
2021-12-03 15:07:00,,0831.3,5.00,0.00,26.9,26.0,00.0,36.0,28.6,13.6,0000.0,0009.51,0003.40,0002.04
2021-12-03 15:08:00,,0831.3,4.99,0.00,26.9,26.0,00.0,36.0,28.6,13.6,0000.0,0009.69,0003.45,0002.04
2021-12-03 15:09:00,,0831.4,5.00,0.00,26.9,25.9,00.0,36.0,28.5,13.8,0000.0,0009.77,0003.44,0002.04
2021-12-03 15:10:00,,0831.3,5.01,0.00,26.8,25.9,00.0,36.0,28.5,13.8,0000.0,0010.14,0003.42,0002.06
2021-12-03 15:11:00,,0831.4,4.99,0.00,26.8,25.9,00.0,35.9,28.5,13.9,0000.0,0010.20,0003.40,0002.03
2021-12-03 15:12:00,,0831.3,5.01,0.00,26.8,25.9,00.0,35.9,28.4,14.0,0000.0,0010.11,0003.37,0002.01
2021-12-03 15:13:00,,0831.4,5.00,0.00,26.7,25.9,00.0,35.9,28.4,14.0,0000.0,0010.11,0003.36,0002.00
2021-12-03 15:14:00,,0831.4,5.01,0.00,26.7,25.9,00.0,35.9,28.4,14.0,0000.0,0010.00,0003.32,0001.98
2021-12-03 15:15:00,,0831.4,4.99,0.00,26.7,25.9,00.0,35.9,28.4,14.0,0000.0,0010.69,0003.31,0001.96
2021-12-03 15:16:00,,0831.4,5.00,0.00,26.7,25.9,00.0,35.9,28.4,14.0,0000.0,0010.64,0003.30,0001.97
2021-12-03 15:17:00,,0831.4,5.00,0.00,26.7,25.8,00.0,35.8,28.3,14.0,0000.0,0010.63,0003.30,0001.97
2021-12-03 15:18:00,,0831.4,4.99,0.00,26.6,25.8,00.0,35.8,28.3,14.0,0000.0,0010.43,0003.26,0001.96
2021-12-03 15:19:00,,0831.4,5.01,0.00,26.6,25.9,00.0,35.8,28.3,14.0,0000.0,0010.68,0003.22,0001.94
2021-12-03 15:20:00,,0831.4,5.00,0.00,26.6,25.9,00.0,35.8,28.4,14.0,0000.0,0010.28,0003.18,0001.93
2021-12-03 15:21:00,,0831.4,4.99,0.00,26.6,25.9,00.0,35.8,28.4,14.0,0000.0,0010.07,0003.19,0001.90
2021-12-03 15:22:00,,0831.4,5.01,0.00,26.6,25.8,00.0,35.8,28.3,14.0,0000.0,0010.32,0003.19,0001.90
2021-12-03 15:23:00,,0831.4,4.98,0.00,26.6,25.8,00.0,35.7,28.3,14.0,0000.0,0010.16,0003.24,0001.91
2021-12-03 15:24:00,,0831.4,5.02,0.00,26.6,25.8,00.0,35.7,28.3,14.0,0000.0,0009.57,0003.24,0001.92
2021-12-03 15:25:00,,0831.4,5.00,0.00,26.6,25.8,00.0,35.7,28.3,14.1,0000.0,0009.81,0003.25,0001.92
2021-12-03 15:26:00,,0831.4,4.99,0.00,26.6,25.8,00.0,35.7,28.3,14.2,0000.0,0009.49,0003.24,0001.90
2021-12-03 15:27:00,,0831.4,5.00,0.00,26.6,25.8,00.0,35.7,28.3,14.2,0000.0,0009.82,0003.23,0001.87
2021-12-03 15:28:00,,0831.4,5.01,0.00,26.6,25.8,00.0,35.7,28.3,14.2,0000.0,0010.29,0003.23,0001.85
2021-12-03 15:29:00,,0831.4,5.00,0.00,26.6,25.8,00.0,35.7,28.3,14.2,0000.0,0010.64,0003.27,0001.84
2021-12-03 15:30:00,,0831.4,4.99,0.00,26.6,25.8,00.0,35.7,28.3,14.2,0000.0,0009.95,0003.25,0001.84
2021-12-03 15:31:00,,0831.4,5.01,0.00,26.5,25.8,00.0,35.7,28.3,14.3,0000.0,0009.63,0003.25,0001.85
2021-12-03 15:32:00,,0831.4,5.00,0.00,26.5,25.8,00.0,35.6,28.2,14.3,0000.0,0009.38,0003.20,0001.85
2021-12-03 15:33:00,,0831.4,5.00,0.00,26.5,25.8,00.0,35.6,28.2,14.2,0000.0,0009.36,0003.18,0001.86
2021-12-03 15:34:00,,0831.4,5.01,0.00,26.5,25.8,00.0,35.6,28.2,14.2,0000.0,0010.06,0003.15,0001.85
2021-12-03 15:35:00,,0831.4,4.98,0.00,26.5,25.8,00.0,35.6,28.3,14.2,0000.0,0010.25,0003.14,0001.83
2021-12-03 15:36:00,,0831.4,5.01,0.00,26.5,25.8,00.0,35.6,28.3,14.2,0000.0,0009.94,0003.12,0001.82
2021-12-03 15:37:00,,0831.3,5.01,0.00,26.5,25.8,00.0,35.6,28.3,14.2,0000.0,0009.74,0003.13,0001.84
2021-12-03 15:38:00,,0831.3,4.99,0.00,26.5,25.8,00.0,35.6,28.3,14.2,0000.0,0009.41,0003.12,0001.84
2021-12-03 15:39:00,,0831.3,5.00,0.00,26.5,25.8,00.0,35.6,28.3,14.2,0000.0,0009.25,0003.13,0001.85
2021-12-03 15:40:00,,0831.3,5.00,0.00,26.6,25.8,00.0,35.6,28.3,14.2,0000.0,0009.70,0003.10,0001.86
2021-12-03 15:41:00,,0831.2,5.01,0.00,26.5,25.8,00.0,35.6,28.3,14.1,0000.0,0010.08,0003.12,0001.87
2021-12-03 15:42:00,,0831.2,4.98,0.00,26.5,25.8,00.0,35.6,28.3,14.1,0000.0,0010.07,0003.12,0001.88
2021-12-03 15:43:00,,0831.2,5.01,0.00,26.5,25.7,00.0,35.6,28.3,14.1,0000.0,0010.14,0003.15,0001.88
2021-12-03 15:44:00,,0831.2,4.99,0.00,26.5,25.7,00.0,35.6,28.3,14.1,0000.0,0009.74,0003.17,0001.88
2021-12-03 15:45:00,,0831.2,5.02,0.00,26.5,25.7,00.0,35.6,28.3,14.1,0000.0,0008.95,0003.19,0001.90
2021-12-03 15:46:00,,0831.2,4.99,0.00,26.5,25.7,00.0,35.6,28.3,14.1,0000.0,0008.90,0003.23,0001.91
2021-12-03 15:47:00,,0831.2,5.00,0.00,26.5,25.7,00.0,35.6,28.3,14.1,0000.0,0009.05,0003.28,0001.94
2021-12-03 15:48:00,,0831.3,5.00,0.00,26.5,25.7,00.0,35.6,28.3,14.2,0000.0,0009.01,0003.30,0001.95
2021-12-03 15:49:00,,0831.2,4.99,0.00,26.5,25.7,00.0,35.6,28.3,14.2,0000.0,0009.00,0003.30,0001.97
2021-12-03 15:50:00,,0831.3,5.02,0.00,26.5,25.7,00.0,35.6,28.3,14.2,0000.0,0009.06,0003.32,0001.98
2021-12-03 15:51:00,,0831.2,4.98,0.00,26.5,25.8,00.0,35.6,28.3,14.2,0000.0,0008.45,0003.33,0002.00
2021-12-03 15:52:00,,0831.3,5.01,0.00,26.5,25.8,00.0,35.6,28.3,14.0,0000.0,0007.95,0003.38,0002.02
2021-12-03 15:53:00,,0831.3,4.99,0.00,26.5,25.8,00.0,35.6,28.3,14.0,0000.0,0008.11,0003.42,0002.04
2021-12-03 15:54:00,,0831.3,5.00,0.00,26.5,25.8,00.0,35.6,28.3,13.9,0000.0,0008.02,0003.42,0002.08
2021-12-03 15:55:00,,0831.2,5.00,0.00,26.5,25.8,00.0,35.6,28.3,13.9,0000.0,0008.03,0003.44,0002.12
2021-12-03 15:56:00,,0831.2,5.01,0.00,26.5,25.8,00.0,35.5,28.3,13.9,0000.0,0008.03,0003.42,0002.16
2021-12-03 15:57:00,,0831.2,5.00,0.00,26.5,25.8,00.0,35.5,28.3,13.9,0000.0,0008.10,0003.43,0002.18
2021-12-03 15:58:00,,0831.2,4.99,0.00,26.5,25.8,00.0,35.5,28.3,13.9,0000.0,0008.34,0003.48,0002.20
2021-12-03 15:59:00,,0831.2,5.01,0.00,26.6,25.8,00.0,35.6,28.3,13.9,0000.0,0009.21,0003.55,0002.23
